GONETS M 10 (M20)

Satellite information

Favourite Embed

Satellite Type and Status

PAYLOADIN ORBIT

Key statistics

Satellite GONETS M 10 (M20) at a glance.

Uptime

4023

Days in orbit

Revolutions

≈ 12.4

Per day

Orbit

LEO

Low Earth Orbit

Inclination

82.5

Latest

Satellite identification and parameters

Extended collection of information and parameters for GONETS M 10 (M20).

Object identification

Identified? True

Debris? False

Object name: GONETS M 10 (M20)

International designator: 2014-036C

Object number (NORAD): 40063

Object ID (CCSDS): 40063

Country: COMMONWEALTH OF INDEPENDENT STATES (CIS)

Current information (Y/N): Y

RCS size: LARGE

Orbital parameters

Period: 115.855 minutes

Inclination: 82.5107 deg

SMA: 7872.328 km

Apoapsis: 1511.227 km

Periapsis: 1477.159 km

RAAN: 162.3267 deg

Eccentricy: 0.0021638

Argument of periapsis: 172.0433 deg

Mean anomaly: 188.0995 deg

Mean motion: 12.42933834 rev/day

Mean motion (dot): 0.00000032 rev/day2

B* drag term: 0.00015994 1/REarth

Two-line elements (TLE)

Creation date: July 6, 2025, 6:05 p.m.

Reference frame: TEME

Reference center: EARTH

Epoch: July 6, 2025, 2:11 p.m. UTC

TLE line 0: 0 GONETS M 10 (M20)

TLE line 1: 1 40063U 14036C 25187.59159701 .00000032 00000-0 15994-3 0 9993

TLE line 2: 2 40063 82.5107 162.3267 0021638 172.0433 188.0995 12.42933834499310

Live tracking on map

Real-time ground track for satellite GONETS M 10 (M20).

In-orbit conjunctions

There are no conjunctions computed for GONETS M 10 (M20), at the moment. Check back to stay up to date, as we update our databases every day.

Go to all conjunctions

Associated space launch

Gonets-M are an upgraded version of Gonets satellites, derived from military communications system Strela-3. Gonets-M constellation is tasked with monitoring ecological and industrial objects, providing communication and data transmission services, covering also the remote areas like the Far North region.

GONETS M 10 (M20) was lifted into orbit during the mission ‘Rokot / Briz-KM | Gonets-M18, Gonets-M19, Gonets-M20’, on board a Rokot/Briz-KM space rocket.

The launch took place on July 3, 2014, 12:43 p.m. from 133/3 (133L).

For more information about the launch, click the button.

Launch to space Rokot / Briz-KM | Gonets-M18, Gonets-M19, Gonets-M20
Rokot / Briz-KM | Gonets-M18, Gonets-M19, Gonets-M20

Agency: N/A

Status: Launch Successful

Launch date: July 3, 2014, 12:43 p.m. UTC

Rocket: Rokot/Briz-KM

Launch pad: 133/3 (133L)

Location: Plesetsk Cosmodrome, Russian Federation

...

Latest news about this satellite

There are no fresh news available about this satellite. Check back as we update our databases every day.


Newsletter sign-up

Weekly statistics, charts and insights to help you stay on top of the space industry.